COSMOS 2441

Satellite information

Favourite Embed

Satellite Type and Status

PAYLOADIN ORBIT

Key statistics

Satellite COSMOS 2441 at a glance.

Uptime

6349

Days in orbit

Revolutions

≈ 14.5

Per day

Orbit

SSO

Sun Synchronous Orbit

Inclination

98.3

Latest

Satellite identification and parameters

Extended collection of information and parameters for COSMOS 2441.

Object identification

Identified? True

Debris? False

Object name: COSMOS 2441

International designator: 2008-037A

Object number (NORAD): 33272

Object ID (CCSDS): 33272

Country: COMMONWEALTH OF INDEPENDENT STATES (CIS)

Current information (Y/N): Y

RCS size: LARGE

Orbital parameters

Period: 99.096 minutes

Inclination: 98.3075 deg

SMA: 7093.582 km

Apoapsis: 726.669 km

Periapsis: 704.224 km

RAAN: 289.5417 deg

Eccentricy: 0.00158206

Argument of periapsis: 190.3386 deg

Mean anomaly: 169.7486 deg

Mean motion: 14.53129726 rev/day

Mean motion (dot): 0.0000045 rev/day2

B* drag term: 0.00011965865 1/REarth

Two-line elements (TLE)

Creation date: Dec. 12, 2025, 10:14 a.m.

Reference frame: TEME

Reference center: EARTH

Epoch: Dec. 12, 2025, 7:14 a.m. UTC

TLE line 0: 0 COSMOS 2441

TLE line 1: 1 33272U 08037A 25346.30182372 .00000450 00000-0 11966-3 0 9996

TLE line 2: 2 33272 98.3075 289.5417 0015821 190.3386 169.7486 14.53129726920905

Live tracking on map

Real-time ground track for satellite COSMOS 2441.

In-orbit conjunctions

A list of the most updated potential collisions computed for object COSMOS 2441.

Target Orbit TCA Probability of collision Miss distance Type
COSMOS 2251 DEB LEO 2025-10-10 17:30:00 0.0003232407 343.0 (m) DEBRIS
COSMOS 375 DEB LEO 2025-09-30 01:23:25 0.0001062061 262.0 (m) DEBRIS
CZ-4B DEB SSO 2025-09-29 03:05:08 0.0002500363 513.0 (m) DEBRIS
CZ-6A DEB LEO 2025-08-10 19:34:09 0.0001520784 207.0 (m) DEBRIS
CZ-6A DEB LEO 2025-07-15 02:12:38 0.0003975123 273.0 (m) DEBRIS

Associated space launch

Electro-optical reconnaissance satellite

COSMOS 2441 was lifted into orbit during the mission ‘Soyuz 2.1b | Persona 1’, on board a Soyuz 2.1b space rocket.

The launch took place on July 26, 2008, 6:31 p.m. from 43/4 (43R).

For more information about the launch, click the button.

Launch to space Soyuz 2.1b | Persona 1
Soyuz 2.1b | Persona 1

Agency: N/A

Status: Launch Successful

Launch date: July 26, 2008, 6:31 p.m. UTC

Rocket: Soyuz 2.1b

Launch pad: 43/4 (43R)

Location: Plesetsk Cosmodrome, Russian Federation

...

Latest news about this satellite

There are no fresh news available about this satellite. Check back as we update our databases every day.


Newsletter sign-up

Weekly statistics, charts and insights to help you stay on top of the space industry.